TAP1716 LPMA-LPFR

Flight info

Callsign TAP1716
Flight time 1h 33m
Altitude 38000
Route DEGUN DCT NARTA DCT GIMAL
Aircraft E195/M-SDE3GILORVW/S

Departure

Time 2026-05-06 19:39
Airport Cristiano Ronaldo International Airport (LPMA)

Arrival

Time 2026-05-06 21:12
Airport Faro - Gago Coutinho International Airport (LPFR)
Time Latitude Longitude Altitude Speed Heading
2026-05-06 18:29 32.69414 -16.77592 168 ft 0 kts 138°
2026-05-06 19:26 32.69416 -16.77595 168 ft 3 kts 138°
2026-05-06 19:27 32.69436 -16.77616 168 ft 3 kts 138°
2026-05-06 19:27 32.69454 -16.77632 168 ft 4 kts 161°
2026-05-06 19:27 32.69476 -16.77632 168 ft 4 kts 226°
2026-05-06 19:27 32.69492 -16.77607 168 ft 4 kts 231°
2026-05-06 19:28 32.69496 -16.77601 168 ft 3 kts 226°
2026-05-06 19:31 32.69470 -16.77633 168 ft 6 kts 225°
2026-05-06 19:32 32.69434 -16.77678 168 ft 9 kts 226°
2026-05-06 19:32 32.69383 -16.77741 168 ft 12 kts 226°
2026-05-06 19:32 32.69317 -16.77821 168 ft 14 kts 226°
2026-05-06 19:32 32.69290 -16.77881 168 ft 0 kts 262°
2026-05-06 19:33 32.69290 -16.77883 168 ft 1 kts 265°
2026-05-06 19:33 32.69290 -16.77915 168 ft 7 kts 268°
2026-05-06 19:33 32.69289 -16.77993 168 ft 11 kts 268°
2026-05-06 19:33 32.69241 -16.78084 166 ft 16 kts 225°
2026-05-06 19:34 32.69154 -16.78188 161 ft 20 kts 224°
2026-05-06 19:34 32.69047 -16.78312 155 ft 24 kts 224°
2026-05-06 19:34 32.68931 -16.78402 152 ft 17 kts 192°
2026-05-06 19:34 32.68902 -16.78471 152 ft 10 kts 320°
2026-05-06 19:35 32.68933 -16.78448 152 ft 5 kts 63°
2026-05-06 19:35 32.68943 -16.78435 152 ft 0 kts 43°
2026-05-06 19:37 32.68952 -16.78424 152 ft 13 kts 45°
2026-05-06 19:37 32.69172 -16.78165 162 ft 74 kts 45°
2026-05-06 19:37 32.69674 -16.77580 178 ft 127 kts 44°
2026-05-06 19:38 32.70399 -16.76764 374 ft 151 kts 41°
2026-05-06 19:38 32.71210 -16.75892 753 ft 160 kts 46°
2026-05-06 19:38 32.71695 -16.74736 569 ft 158 kts 87°
2026-05-06 19:38 32.71374 -16.73573 520 ft 151 kts 136°
2026-05-06 19:39 32.70533 -16.72624 1006 ft 185 kts 135°
2026-05-06 19:39 32.69693 -16.71259 1318 ft 219 kts 121°
2026-05-06 19:39 32.69026 -16.69716 1525 ft 200 kts 116°
2026-05-06 19:39 32.68451 -16.68182 1768 ft 207 kts 112°
2026-05-06 19:40 32.67984 -16.66562 2162 ft 208 kts 109°
2026-05-06 19:40 32.67548 -16.64925 2813 ft 210 kts 109°
2026-05-06 19:40 32.67108 -16.63256 3463 ft 213 kts 109°
2026-05-06 19:40 32.66666 -16.61566 4108 ft 216 kts 108°
2026-05-06 19:41 32.66221 -16.59861 4750 ft 217 kts 109°
2026-05-06 19:41 32.65773 -16.58158 5377 ft 217 kts 109°
2026-05-06 19:41 32.65346 -16.56467 6002 ft 216 kts 102°
2026-05-06 19:41 32.65488 -16.54736 6608 ft 212 kts 62°
2026-05-06 19:42 32.66305 -16.53333 7235 ft 203 kts 50°
2026-05-06 19:42 32.67190 -16.52070 7827 ft 195 kts 47°
2026-05-06 19:42 32.68125 -16.50890 8237 ft 197 kts 43°
2026-05-06 19:42 32.69108 -16.49754 8631 ft 198 kts 42°
2026-05-06 19:43 32.70101 -16.48622 9021 ft 199 kts 42°
2026-05-06 19:43 32.71101 -16.47480 9410 ft 200 kts 42°
2026-05-06 19:43 32.72095 -16.46346 9805 ft 201 kts 42°
2026-05-06 19:43 32.73107 -16.45188 10209 ft 203 kts 42°
2026-05-06 19:44 32.74124 -16.44028 10609 ft 204 kts 42°
2026-05-06 19:44 32.75153 -16.42852 11005 ft 205 kts 42°
2026-05-06 19:44 32.76187 -16.41672 11395 ft 207 kts 41°
2026-05-06 19:44 32.77228 -16.40482 11781 ft 208 kts 42°
2026-05-06 19:45 32.78274 -16.39288 12164 ft 209 kts 41°
2026-05-06 19:45 32.79324 -16.38086 12537 ft 211 kts 41°
2026-05-06 19:45 32.80386 -16.36871 12822 ft 219 kts 42°
2026-05-06 19:45 32.81545 -16.35547 12826 ft 242 kts 42°
2026-05-06 19:46 32.82799 -16.34111 12856 ft 265 kts 42°
2026-05-06 19:46 32.84184 -16.32524 12886 ft 288 kts 42°
2026-05-06 19:46 32.85685 -16.30804 12898 ft 310 kts 43°
2026-05-06 19:46 32.87295 -16.28960 12892 ft 332 kts 43°
2026-05-06 19:47 32.89004 -16.27003 12877 ft 351 kts 43°
2026-05-06 19:47 32.90783 -16.24960 12844 ft 352 kts 43°
2026-05-06 19:47 32.92490 -16.22999 12996 ft 330 kts 43°
2026-05-06 19:47 32.94141 -16.21104 13437 ft 333 kts 43°
2026-05-06 19:48 32.95801 -16.19196 13861 ft 337 kts 43°
2026-05-06 19:48 32.97496 -16.17248 14288 ft 341 kts 43°
2026-05-06 19:48 32.99213 -16.15273 14716 ft 344 kts 43°
2026-05-06 19:48 33.00941 -16.13284 15137 ft 346 kts 43°
2026-05-06 19:49 33.02673 -16.11290 15567 ft 348 kts 43°
2026-05-06 19:49 33.04413 -16.09284 15994 ft 350 kts 43°
2026-05-06 19:49 33.06177 -16.07249 16441 ft 353 kts 43°
2026-05-06 19:49 33.07945 -16.05210 16897 ft 355 kts 43°
2026-05-06 19:50 33.09729 -16.03152 17348 ft 358 kts 42°
2026-05-06 19:50 33.11498 -16.01113 17791 ft 361 kts 43°
2026-05-06 19:50 33.13307 -15.99020 18243 ft 363 kts 43°
2026-05-06 19:50 33.15126 -15.96916 18685 ft 366 kts 43°
2026-05-06 19:51 33.16959 -15.94793 19143 ft 368 kts 42°
2026-05-06 19:51 33.18802 -15.92657 19592 ft 371 kts 43°
2026-05-06 19:51 33.20654 -15.90512 20041 ft 373 kts 42°
2026-05-06 19:51 33.22523 -15.88344 20491 ft 375 kts 43°
2026-05-06 19:52 33.24375 -15.86196 20934 ft 377 kts 42°
2026-05-06 19:52 33.26255 -15.84012 21381 ft 378 kts 43°
2026-05-06 19:52 33.28147 -15.81810 21829 ft 380 kts 43°
2026-05-06 19:52 33.30046 -15.79602 22277 ft 381 kts 43°
2026-05-06 19:53 33.31950 -15.77392 22723 ft 382 kts 43°
2026-05-06 19:53 33.33853 -15.75175 23167 ft 383 kts 43°
2026-05-06 19:53 33.35768 -15.72950 23615 ft 384 kts 43°
2026-05-06 19:53 33.37680 -15.70719 24061 ft 384 kts 42°
2026-05-06 19:54 33.39586 -15.68545 24499 ft 383 kts 40°
2026-05-06 19:54 33.41523 -15.66348 24943 ft 384 kts 44°
2026-05-06 19:54 33.43416 -15.64100 25386 ft 383 kts 41°
2026-05-06 19:54 33.45358 -15.61916 25834 ft 382 kts 41°
2026-05-06 19:55 33.47291 -15.59738 26275 ft 381 kts 41°
2026-05-06 19:55 33.49218 -15.57569 26715 ft 380 kts 41°
2026-05-06 19:55 33.51136 -15.55414 27154 ft 379 kts 41°
2026-05-06 19:55 33.53059 -15.53247 27596 ft 377 kts 41°
2026-05-06 19:56 33.54963 -15.51103 28034 ft 375 kts 41°
2026-05-06 19:56 33.56832 -15.48995 28467 ft 372 kts 41°
2026-05-06 19:56 33.58706 -15.46880 28901 ft 369 kts 41°
2026-05-06 19:56 33.60571 -15.44775 29343 ft 366 kts 41°
2026-05-06 19:57 33.62413 -15.42693 29772 ft 362 kts 41°
2026-05-06 19:57 33.64236 -15.40634 30203 ft 358 kts 41°
2026-05-06 19:57 33.66031 -15.38602 30631 ft 353 kts 40°
2026-05-06 19:57 33.67804 -15.36596 31071 ft 347 kts 40°
2026-05-06 19:58 33.69544 -15.34625 31480 ft 341 kts 40°
2026-05-06 19:58 33.71251 -15.32691 31896 ft 333 kts 40°
2026-05-06 19:58 33.72916 -15.30803 32311 ft 325 kts 40°
2026-05-06 19:58 33.74514 -15.28990 32703 ft 315 kts 40°
2026-05-06 19:59 33.76080 -15.27216 33088 ft 304 kts 40°
2026-05-06 19:59 33.77594 -15.25497 33354 ft 296 kts 40°
2026-05-06 19:59 33.79077 -15.23813 33484 ft 291 kts 40°
2026-05-06 19:59 33.80536 -15.22154 33553 ft 288 kts 40°
2026-05-06 20:00 33.81994 -15.20497 33497 ft 289 kts 40°
2026-05-06 20:00 33.83464 -15.18822 33495 ft 293 kts 40°
2026-05-06 20:00 33.84952 -15.17125 33516 ft 297 kts 40°
2026-05-06 20:00 33.86458 -15.15408 33552 ft 301 kts 40°
2026-05-06 20:01 33.89530 -15.11905 33627 ft 311 kts 40°
2026-05-06 20:01 33.92733 -15.08249 33713 ft 324 kts 40°
2026-05-06 20:02 33.96044 -15.04467 34052 ft 328 kts 40°
2026-05-06 20:02 33.97698 -15.02576 34316 ft 327 kts 40°
2026-05-06 20:02 33.99346 -15.00694 34556 ft 326 kts 40°
2026-05-06 20:03 34.00981 -14.98822 34792 ft 324 kts 40°
2026-05-06 20:03 34.02611 -14.96956 35023 ft 322 kts 40°
2026-05-06 20:03 34.04205 -14.95129 35249 ft 319 kts 40°
2026-05-06 20:03 34.05806 -14.93294 35469 ft 316 kts 40°
2026-05-06 20:04 34.07385 -14.91482 35685 ft 311 kts 40°
2026-05-06 20:04 34.08943 -14.89696 35888 ft 306 kts 40°
2026-05-06 20:04 34.12025 -14.86156 35955 ft 308 kts 40°
2026-05-06 20:05 34.13594 -14.84350 35781 ft 320 kts 40°
2026-05-06 20:05 34.15255 -14.82442 35528 ft 332 kts 41°
2026-05-06 20:05 34.18611 -14.78571 35691 ft 340 kts 41°
2026-05-06 20:06 34.20335 -14.76583 35806 ft 343 kts 41°
2026-05-06 20:06 34.22061 -14.74594 35973 ft 344 kts 41°
2026-05-06 20:06 34.23791 -14.72595 36137 ft 345 kts 41°
2026-05-06 20:06 34.25538 -14.70581 36295 ft 347 kts 41°
2026-05-06 20:07 34.27287 -14.68569 36449 ft 348 kts 41°
2026-05-06 20:07 34.29039 -14.66543 36603 ft 349 kts 41°
2026-05-06 20:07 34.30792 -14.64517 36752 ft 350 kts 41°
2026-05-06 20:07 34.32536 -14.62499 36894 ft 351 kts 41°
2026-05-06 20:08 34.34301 -14.60455 37040 ft 352 kts 41°
2026-05-06 20:08 34.36074 -14.58398 37180 ft 353 kts 41°
2026-05-06 20:08 34.37847 -14.56340 37318 ft 354 kts 41°
2026-05-06 20:08 34.39627 -14.54277 37451 ft 355 kts 41°
2026-05-06 20:09 34.41412 -14.52205 37580 ft 356 kts 41°
2026-05-06 20:09 34.43204 -14.50126 37709 ft 357 kts 41°
2026-05-06 20:09 34.44972 -14.48068 37835 ft 358 kts 41°
2026-05-06 20:09 34.46774 -14.45978 37921 ft 360 kts 41°
2026-05-06 20:10 34.50420 -14.41733 37894 ft 365 kts 41°
2026-05-06 20:10 34.54082 -14.37462 37884 ft 366 kts 41°
2026-05-06 20:11 34.57756 -14.33175 37893 ft 368 kts 41°
2026-05-06 20:11 34.61438 -14.28875 37889 ft 370 kts 41°
2026-05-06 20:12 34.65153 -14.24527 37891 ft 372 kts 41°
2026-05-06 20:12 34.68892 -14.20146 37884 ft 375 kts 41°
2026-05-06 20:13 34.72656 -14.15732 37891 ft 378 kts 41°
2026-05-06 20:13 34.76302 -14.11440 37888 ft 381 kts 41°
2026-05-06 20:14 34.80124 -14.06951 37891 ft 384 kts 41°
2026-05-06 20:14 34.83979 -14.02408 37885 ft 388 kts 42°
2026-05-06 20:15 34.87877 -13.97814 37893 ft 391 kts 41°
2026-05-06 20:15 34.91778 -13.93209 37889 ft 395 kts 42°
2026-05-06 20:16 34.95744 -13.88512 37889 ft 399 kts 42°
2026-05-06 20:16 34.99748 -13.83772 37891 ft 404 kts 42°
2026-05-06 20:17 35.03795 -13.78976 37889 ft 408 kts 42°
2026-05-06 20:17 35.07851 -13.74158 37890 ft 412 kts 42°
2026-05-06 20:18 35.11982 -13.69243 37888 ft 416 kts 42°
2026-05-06 20:18 35.16150 -13.64276 37888 ft 421 kts 42°
2026-05-06 20:19 35.20357 -13.59253 37890 ft 425 kts 42°
2026-05-06 20:19 35.24573 -13.54214 37893 ft 429 kts 42°
2026-05-06 20:20 35.28862 -13.49079 37888 ft 433 kts 42°
2026-05-06 20:20 35.33182 -13.43904 37889 ft 437 kts 42°
2026-05-06 20:21 35.37542 -13.38667 37890 ft 441 kts 42°
2026-05-06 20:21 35.41906 -13.33419 37887 ft 444 kts 42°
2026-05-06 20:22 35.46319 -13.28103 37882 ft 443 kts 42°
2026-05-06 20:22 35.50709 -13.22808 37890 ft 442 kts 42°
2026-05-06 20:23 35.55091 -13.17511 37886 ft 443 kts 43°
2026-05-06 20:23 35.59486 -13.12189 37890 ft 443 kts 43°
2026-05-06 20:24 35.63837 -13.06914 37883 ft 443 kts 43°
2026-05-06 20:24 35.68222 -13.01590 37892 ft 443 kts 43°
2026-05-06 20:25 35.72598 -12.96269 37883 ft 443 kts 43°
2026-05-06 20:25 35.76972 -12.90939 37892 ft 443 kts 43°
2026-05-06 20:26 35.81351 -12.85594 37888 ft 443 kts 43°
2026-05-06 20:26 35.85691 -12.80287 37889 ft 443 kts 43°
2026-05-06 20:27 35.90062 -12.74936 37890 ft 443 kts 43°
2026-05-06 20:27 35.94433 -12.69578 37886 ft 443 kts 43°
2026-05-06 20:28 35.98795 -12.64219 37886 ft 443 kts 43°
2026-05-06 20:28 36.03118 -12.58874 37889 ft 443 kts 45°
2026-05-06 20:29 36.05035 -12.55880 37889 ft 445 kts 56°
2026-05-06 20:29 36.06518 -12.52513 37893 ft 447 kts 66°
2026-05-06 20:29 36.07519 -12.48882 37889 ft 447 kts 77°
2026-05-06 20:29 36.08106 -12.45112 37890 ft 447 kts 81°
2026-05-06 20:30 36.09524 -12.33745 37889 ft 447 kts 78°
2026-05-06 20:31 36.10789 -12.26276 37885 ft 447 kts 78°
2026-05-06 20:31 36.12091 -12.18760 37891 ft 447 kts 78°
2026-05-06 20:32 36.13387 -12.11249 37890 ft 447 kts 78°
2026-05-06 20:32 36.14679 -12.03730 37891 ft 447 kts 78°
2026-05-06 20:33 36.15957 -11.96262 37885 ft 447 kts 78°
2026-05-06 20:33 36.17238 -11.88743 37890 ft 447 kts 78°
2026-05-06 20:34 36.18513 -11.81222 37887 ft 447 kts 78°
2026-05-06 20:34 36.19784 -11.73697 37890 ft 447 kts 78°
2026-05-06 20:35 36.21043 -11.66218 37885 ft 447 kts 78°
2026-05-06 20:35 36.22305 -11.58687 37888 ft 447 kts 78°
2026-05-06 20:36 36.23563 -11.51149 37884 ft 447 kts 78°
2026-05-06 20:36 36.24813 -11.43624 37888 ft 447 kts 78°
2026-05-06 20:37 36.26051 -11.36132 37884 ft 447 kts 78°
2026-05-06 20:37 36.27296 -11.28592 37890 ft 447 kts 78°
2026-05-06 20:38 36.28536 -11.21049 37888 ft 447 kts 79°
2026-05-06 20:38 36.29769 -11.13505 37888 ft 447 kts 79°
2026-05-06 20:39 36.30998 -11.05955 37889 ft 447 kts 79°
2026-05-06 20:39 36.32213 -10.98462 37887 ft 447 kts 79°
2026-05-06 20:40 36.33433 -10.90910 37888 ft 447 kts 79°
2026-05-06 20:40 36.34648 -10.83357 37887 ft 447 kts 79°
2026-05-06 20:41 36.35859 -10.75794 37889 ft 447 kts 79°
2026-05-06 20:41 36.37055 -10.68284 37891 ft 447 kts 79°
2026-05-06 20:42 36.38255 -10.60724 37890 ft 447 kts 79°
2026-05-06 20:42 36.39451 -10.53165 37890 ft 447 kts 79°
2026-05-06 20:43 36.40641 -10.45608 37891 ft 447 kts 79°
2026-05-06 20:43 36.41828 -10.38034 37887 ft 447 kts 79°
2026-05-06 20:44 36.43001 -10.30514 37886 ft 447 kts 79°
2026-05-06 20:44 36.44176 -10.22945 37887 ft 447 kts 79°
2026-05-06 20:45 36.45349 -10.15368 37892 ft 447 kts 79°
2026-05-06 20:45 36.46517 -10.07786 37888 ft 447 kts 79°
2026-05-06 20:46 36.47678 -10.00217 37887 ft 447 kts 79°
2026-05-06 20:46 36.48827 -9.92687 37886 ft 447 kts 79°
2026-05-06 20:47 36.49980 -9.85094 37887 ft 447 kts 79°
2026-05-06 20:47 36.51128 -9.77512 37886 ft 447 kts 79°
2026-05-06 20:48 36.52270 -9.69933 37887 ft 447 kts 79°
2026-05-06 20:48 36.53403 -9.62382 37537 ft 446 kts 80°
2026-05-06 20:48 36.53967 -9.58595 37285 ft 445 kts 79°
2026-05-06 20:49 36.54531 -9.54817 37038 ft 444 kts 80°
2026-05-06 20:49 36.55094 -9.51036 36794 ft 445 kts 80°
2026-05-06 20:49 36.55654 -9.47254 36549 ft 445 kts 80°
2026-05-06 20:49 36.56218 -9.43459 36308 ft 445 kts 80°
2026-05-06 20:50 36.56775 -9.39676 36065 ft 445 kts 80°
2026-05-06 20:50 36.57334 -9.35894 35822 ft 445 kts 80°
2026-05-06 20:50 36.57885 -9.32145 35581 ft 446 kts 80°
2026-05-06 20:50 36.58441 -9.28353 35335 ft 447 kts 80°
2026-05-06 20:51 36.59000 -9.24541 34872 ft 449 kts 80°
2026-05-06 20:51 36.59557 -9.20724 34277 ft 449 kts 80°
2026-05-06 20:51 36.60113 -9.16911 33681 ft 447 kts 80°
2026-05-06 20:51 36.60665 -9.13107 33088 ft 447 kts 80°
2026-05-06 20:52 36.61221 -9.09287 32499 ft 449 kts 80°
2026-05-06 20:52 36.61774 -9.05455 31912 ft 451 kts 80°
2026-05-06 20:52 36.62323 -9.01658 31331 ft 451 kts 80°
2026-05-06 20:52 36.62876 -8.97819 30745 ft 452 kts 80°
2026-05-06 20:53 36.63428 -8.93968 30154 ft 452 kts 80°
2026-05-06 20:53 36.63984 -8.90105 29559 ft 453 kts 80°
2026-05-06 20:53 36.64532 -8.86255 28973 ft 451 kts 80°
2026-05-06 20:53 36.65081 -8.82424 28377 ft 447 kts 80°
2026-05-06 20:54 36.65618 -8.78639 27772 ft 442 kts 80°
2026-05-06 20:54 36.66150 -8.74898 27169 ft 437 kts 80°
2026-05-06 20:54 36.66676 -8.71188 26565 ft 432 kts 80°
2026-05-06 20:54 36.67186 -8.67573 25972 ft 428 kts 80°
2026-05-06 20:55 36.67699 -8.63943 25370 ft 424 kts 80°
2026-05-06 20:55 36.68205 -8.60336 24767 ft 420 kts 80°
2026-05-06 20:55 36.68708 -8.56764 24164 ft 416 kts 80°
2026-05-06 20:55 36.69200 -8.53241 23563 ft 412 kts 80°
2026-05-06 20:56 36.69691 -8.49739 22839 ft 409 kts 81°
2026-05-06 20:56 36.70168 -8.46291 21709 ft 397 kts 81°
2026-05-06 20:56 36.70638 -8.42964 21018 ft 373 kts 80°
2026-05-06 20:56 36.71049 -8.39985 20905 ft 337 kts 81°
2026-05-06 20:57 36.71447 -8.37101 20321 ft 331 kts 81°
2026-05-06 20:57 36.71796 -8.34285 19382 ft 327 kts 88°
2026-05-06 20:57 36.71954 -8.31492 18514 ft 319 kts 81°
2026-05-06 20:57 36.72372 -8.28770 18216 ft 328 kts 76°
2026-05-06 20:58 36.72990 -8.26101 19055 ft 311 kts 77°
2026-05-06 20:58 36.73408 -8.23394 19124 ft 328 kts 79°
2026-05-06 20:58 36.73634 -8.20538 19421 ft 327 kts 97°
2026-05-06 20:58 36.73333 -8.18224 19627 ft 332 kts 99°
2026-05-06 20:59 36.73426 -8.15233 18921 ft 363 kts 81°
2026-05-06 20:59 36.73875 -8.12136 18910 ft 374 kts 80°
2026-05-06 20:59 36.74318 -8.08967 18926 ft 357 kts 79°
2026-05-06 20:59 36.74779 -8.06030 18272 ft 334 kts 79°
2026-05-06 21:00 36.75212 -8.03169 16985 ft 337 kts 80°
2026-05-06 21:00 36.75667 -8.00277 15303 ft 349 kts 78°
2026-05-06 21:00 36.76198 -7.97467 15086 ft 314 kts 76°
2026-05-06 21:00 36.76751 -7.94839 14062 ft 322 kts 74°
2026-05-06 21:01 36.77417 -7.92165 12962 ft 320 kts 72°
2026-05-06 21:01 36.77957 -7.89902 12704 ft 309 kts 75°
2026-05-06 21:01 36.78002 -7.89694 12710 ft 304 kts 75°
2026-05-06 21:01 36.78475 -7.87389 12972 ft 255 kts 76°
2026-05-06 21:02 36.78928 -7.85108 10924 ft 300 kts 75°
2026-05-06 21:02 36.79480 -7.82659 11255 ft 263 kts 76°
2026-05-06 21:02 36.79880 -7.80474 10746 ft 263 kts 80°
2026-05-06 21:02 36.80229 -7.78314 10491 ft 246 kts 80°
2026-05-06 21:03 36.80518 -7.76076 9211 ft 273 kts 82°
2026-05-06 21:03 36.80811 -7.73955 8483 ft 280 kts 76°
2026-05-06 21:03 36.80925 -7.73436 8779 ft 250 kts 75°
2026-05-06 21:04 36.81301 -7.71601 9357 ft 206 kts 75°
2026-05-06 21:04 36.81805 -7.69967 9742 ft 205 kts 60°
2026-05-06 21:04 36.82125 -7.69265 9704 ft 224 kts 59°
2026-05-06 21:04 36.82905 -7.67777 9205 ft 241 kts 56°
2026-05-06 21:05 36.84034 -7.66168 8657 ft 237 kts 39°
2026-05-06 21:05 36.85387 -7.64805 8731 ft 250 kts 37°
2026-05-06 21:05 36.86670 -7.63734 9060 ft 203 kts 16°
2026-05-06 21:05 36.88058 -7.63660 8203 ft 214 kts 339°
2026-05-06 21:06 36.89403 -7.64543 7313 ft 224 kts 329°
2026-05-06 21:06 36.90768 -7.65497 6697 ft 223 kts 328°
2026-05-06 21:06 36.92117 -7.66437 6099 ft 222 kts 328°
2026-05-06 21:06 36.93510 -7.67346 5400 ft 224 kts 332°
2026-05-06 21:07 36.94623 -7.68428 5408 ft 188 kts 298°
2026-05-06 21:07 36.95148 -7.69950 5469 ft 206 kts 289°
2026-05-06 21:07 36.95728 -7.71667 5611 ft 207 kts 293°
2026-05-06 21:07 36.96396 -7.73149 5661 ft 190 kts 301°
2026-05-06 21:08 36.97129 -7.74491 5646 ft 186 kts 301°
2026-05-06 21:08 36.97807 -7.75893 5312 ft 195 kts 297°
2026-05-06 21:08 36.98361 -7.77446 4943 ft 196 kts 289°
2026-05-06 21:08 36.98805 -7.79070 4482 ft 201 kts 285°
2026-05-06 21:09 36.99143 -7.80838 3808 ft 215 kts 280°
2026-05-06 21:09 36.99209 -7.81290 3741 ft 213 kts 279°
2026-05-06 21:09 36.99350 -7.82317 3760 ft 194 kts 279°
2026-05-06 21:10 36.99592 -7.83895 3564 ft 180 kts 279°
2026-05-06 21:10 36.99680 -7.84556 3390 ft 180 kts 277°
2026-05-06 21:10 36.99851 -7.85907 2949 ft 183 kts 278°
2026-05-06 21:10 37.00084 -7.87481 2488 ft 184 kts 279°
2026-05-06 21:11 37.00323 -7.89059 1898 ft 184 kts 280°
2026-05-06 21:11 37.00575 -7.90558 1465 ft 174 kts 280°
2026-05-06 21:11 37.00790 -7.92079 689 ft 184 kts 279°
2026-05-06 21:11 37.01016 -7.93564 406 ft 167 kts 279°
2026-05-06 21:12 37.01203 -7.94906 200 ft 152 kts 279°
2026-05-06 21:12 37.01383 -7.96147 24 ft 137 kts 279°
2026-05-06 21:12 37.01527 -7.97166 19 ft 94 kts 280°
2026-05-06 21:12 37.01607 -7.97748 17 ft 39 kts 281°
2026-05-06 21:13 37.01653 -7.97857 19 ft 11 kts 346°
2026-05-06 21:13 37.01698 -7.97840 19 ft 0 kts 33°
2026-05-06 21:15 37.01723 -7.97805 19 ft 8 kts 54°
2026-05-06 21:15 37.01756 -7.97719 19 ft 13 kts 73°
2026-05-06 21:15 37.01768 -7.97587 19 ft 16 kts 95°
2026-05-06 21:15 37.01754 -7.97481 19 ft 13 kts 100°
2026-05-06 21:16 37.01736 -7.97357 18 ft 16 kts 100°
2026-05-06 21:16 37.01717 -7.97219 19 ft 17 kts 100°
2026-05-06 21:16 37.01696 -7.97072 19 ft 18 kts 101°
2026-05-06 21:16 37.01685 -7.96931 19 ft 15 kts 68°
2026-05-06 21:17 37.01763 -7.96894 19 ft 9 kts 10°
2026-05-06 21:17 37.01814 -7.96883 19 ft 3 kts 14°
2026-05-06 21:17 37.01843 -7.96863 19 ft 6 kts 22°
2026-05-06 21:17 37.01872 -7.96857 20 ft 0 kts 11°